owner,sensor,date,latitude,longitude,air_temperature,qcFlag 
COMPS,ioos:station:USF.COMPS:FHP:1,2012-06-01T00:00:00Z,28.1530,-82.8010,27.4,1111122 
COMPS,ioos:station:USF.COMPS:FHP:1,2012-06-01T01:00:00Z,28.1530,-82.8010,27.3,1111122 
COMPS,ioos:station:USF.COMPS:FHP:1,2012-06-01T02:00:00Z,28.1530,-82.8010,27.0,1111122 
COMPS,ioos:station:USF.COMPS:FHP:1,2012-06-01T03:00:00Z,28.1530,-82.8010,27.2,1111122 
COMPS,ioos:station:USF.COMPS:FHP:1,2012-06-01T04:00:00Z,28.1530,-82.8010,27.1,1111122 
COMPS,ioos:station:USF.COMPS:FHP:1,2012-06-01T05:00:00Z,28.1530,-82.8010,26.8,1111122 
COMPS,ioos:station:USF.COMPS:FHP:1,2012-06-01T06:00:00Z,28.1530,-82.8010,23.6,1111122 
COMPS,ioos:station:USF.COMPS:FHP:1,2012-06-01T07:00:00Z,28.1530,-82.8010,25.7,1111122 
COMPS,ioos:station:USF.COMPS:FHP:1,2012-06-01T08:00:00Z,28.1530,-82.8010,25.4,1111122 
COMPS,ioos:station:USF.COMPS:FHP:1,2012-06-01T09:00:00Z,28.1530,-82.8010,25.9,1111122 
COMPS,ioos:station:USF.COMPS:FHP:1,2012-06-01T10:00:00Z,28.1530,-82.8010,26.3,1111122 
COMPS,ioos:station:USF.COMPS:FHP:1,2012-06-01T11:00:00Z,28.1530,-82.8010,27.0,1111122 
COMPS,ioos:station:USF.COMPS:FHP:1,2012-06-01T12:00:00Z,28.1530,-82.8010,23.3,1111122 
COMPS,ioos:station:USF.COMPS:FHP:1,2012-06-01T13:00:00Z,28.1530,-82.8010,23.8,1111122 
COMPS,ioos:station:USF.COMPS:FHP:1,2012-06-01T14:00:00Z,28.1530,-82.8010,24.3,1111122 
COMPS,ioos:station:USF.COMPS:FHP:1,2012-06-01T15:00:00Z,28.1530,-82.8010,23.7,1111122 
COMPS,ioos:station:USF.COMPS:FHP:1,2012-06-01T16:00:00Z,28.1530,-82.8010,25.3,1111122 
COMPS,ioos:station:USF.COMPS:FHP:1,2012-06-01T17:00:00Z,28.1530,-82.8010,25.8,1111122 
COMPS,ioos:station:USF.COMPS:FHP:1,2012-06-01T18:00:00Z,28.1530,-82.8010,26.7,1111122 
COMPS,ioos:station:USF.COMPS:FHP:1,2012-06-01T19:00:00Z,28.1530,-82.8010,26.8,1111122 
COMPS,ioos:station:USF.COMPS:FHP:1,2012-06-01T20:00:00Z,28.1530,-82.8010,25.2,1111122 
COMPS,ioos:station:USF.COMPS:FHP:1,2012-06-01T21:00:00Z,28.1530,-82.8010,26.6,1111122 
COMPS,ioos:station:USF.COMPS:FHP:1,2012-06-01T22:00:00Z,28.1530,-82.8010,26.3,1111122 
COMPS,ioos:station:USF.COMPS:FHP:1,2012-06-01T23:00:00Z,28.1530,-82.8010,26.1,1111122 
COMPS,ioos:station:USF.COMPS:FHP:1,2012-06-02T00:00:00Z,28.1530,-82.8010,26.2,1111122 
COMPS,ioos:station:USF.COMPS:FHP:1,2012-06-02T01:00:00Z,28.1530,-82.8010,26.2,1111122 
COMPS,ioos:station:USF.COMPS:FHP:1,2012-06-02T02:00:00Z,28.1530,-82.8010,26.1,1111122 
COMPS,ioos:station:USF.COMPS:FHP:1,2012-06-02T03:00:00Z,28.1530,-82.8010,26.1,1111122 
COMPS,ioos:station:USF.COMPS:FHP:1,2012-06-02T04:00:00Z,28.1530,-82.8010,26.2,1111122 
COMPS,ioos:station:USF.COMPS:FHP:1,2012-06-02T05:00:00Z,28.1530,-82.8010,26.3,1111122 
COMPS,ioos:station:USF.COMPS:FHP:1,2012-06-02T06:00:00Z,28.1530,-82.8010,26.3,1111122 
COMPS,ioos:station:USF.COMPS:FHP:1,2012-06-02T07:00:00Z,28.1530,-82.8010,26.1,1111122 
COMPS,ioos:station:USF.COMPS:FHP:1,2012-06-02T08:00:00Z,28.1530,-82.8010,26.1,1111122 
COMPS,ioos:station:USF.COMPS:FHP:1,2012-06-02T09:00:00Z,28.1530,-82.8010,26.3,1111122 
COMPS,ioos:station:USF.COMPS:FHP:1,2012-06-02T10:00:00Z,28.1530,-82.8010,26.3,1111122 
COMPS,ioos:station:USF.COMPS:FHP:1,2012-06-02T11:00:00Z,28.1530,-82.8010,26.4,1111122 
COMPS,ioos:station:USF.COMPS:FHP:1,2012-06-07T18:00:00Z,28.1530,-82.8010,26.2,1111122 
COMPS,ioos:station:USF.COMPS:FHP:1,2012-06-07T19:00:00Z,28.1530,-82.8010,27.5,1111122 
COMPS,ioos:station:USF.COMPS:FHP:1,2012-06-07T20:00:00Z,28.1530,-82.8010,27.5,1111122 
COMPS,ioos:station:USF.COMPS:FHP:1,2012-06-07T21:00:00Z,28.1530,-82.8010,24.0,1111122 
COMPS,ioos:station:USF.COMPS:FHP:1,2012-06-07T22:00:00Z,28.1530,-82.8010,25.1,1111122 
COMPS,ioos:station:USF.COMPS:FHP:1,2012-06-07T23:00:00Z,28.1530,-82.8010,25.2,1111122 
COMPS,ioos:station:USF.COMPS:FHP:1,2012-06-08T00:00:00Z,28.1530,-82.8010,24.1,1111122 
COMPS,ioos:station:USF.COMPS:FHP:1,2012-06-08T01:00:00Z,28.1530,-82.8010,23.8,1111122 
COMPS,ioos:station:USF.COMPS:FHP:1,2012-06-08T02:00:00Z,28.1530,-82.8010,25.3,1111122 
COMPS,ioos:station:USF.COMPS:FHP:1,2012-06-08T03:00:00Z,28.1530,-82.8010,25.7,1111122 
COMPS,ioos:station:USF.COMPS:FHP:1,2012-06-08T04:00:00Z,28.1530,-82.8010,25.6,1111122 
COMPS,ioos:station:USF.COMPS:FHP:1,2012-06-08T05:00:00Z,28.1530,-82.8010,25.9,1111122 
COMPS,ioos:station:USF.COMPS:FHP:1,2012-06-08T06:00:00Z,28.1530,-82.8010,25.7,1111122 
COMPS,ioos:station:USF.COMPS:FHP:1,2012-06-08T07:00:00Z,28.1530,-82.8010,26.0,1111122 
COMPS,ioos:station:USF.COMPS:FHP:1,2012-06-08T08:00:00Z,28.1530,-82.8010,26.4,1111122 
COMPS,ioos:station:USF.COMPS:FHP:1,2012-06-08T09:00:00Z,28.1530,-82.8010,26.5,1111122 
COMPS,ioos:station:USF.COMPS:FHP:1,2012-06-08T10:00:00Z,28.1530,-82.8010,26.5,1111122 
COMPS,ioos:station:USF.COMPS:FHP:1,2012-06-08T11:00:00Z,28.1530,-82.8010,26.4,1111122 
COMPS,ioos:station:USF.COMPS:FHP:1,2012-06-08T12:00:00Z,28.1530,-82.8010,26.4,1111122 
COMPS,ioos:station:USF.COMPS:FHP:1,2012-06-08T13:00:00Z,28.1530,-82.8010,26.6,1111122 
COMPS,ioos:station:USF.COMPS:FHP:1,2012-06-08T14:00:00Z,28.1530,-82.8010,26.4,1111122 
COMPS,ioos:station:USF.COMPS:FHP:1,2012-06-08T15:00:00Z,28.1530,-82.8010,26.6,1111122 
COMPS,ioos:station:USF.COMPS:FHP:1,2012-06-08T16:00:00Z,28.1530,-82.8010,27.2,1111122 
COMPS,ioos:station:USF.COMPS:FHP:1,2012-06-08T17:00:00Z,28.1530,-82.8010,26.4,1111122 
COMPS,ioos:station:USF.COMPS:FHP:1,2012-06-08T21:00:00Z,28.1530,-82.8010,25.1,1111122 
COMPS,ioos:station:USF.COMPS:FHP:1,2012-06-08T22:00:00Z,28.1530,-82.8010,24.3,1111122 
COMPS,ioos:station:USF.COMPS:FHP:1,2012-06-08T23:00:00Z,28.1530,-82.8010,24.3,1111122 
COMPS,ioos:station:USF.COMPS:FHP:1,2012-06-09T00:00:00Z,28.1530,-82.8010,23.7,1111122 
COMPS,ioos:station:USF.COMPS:FHP:1,2012-06-09T01:00:00Z,28.1530,-82.8010,23.6,1111122 
COMPS,ioos:station:USF.COMPS:FHP:1,2012-06-09T02:00:00Z,28.1530,-82.8010,23.5,1111122 
COMPS,ioos:station:USF.COMPS:FHP:1,2012-06-09T03:00:00Z,28.1530,-82.8010,23.7,1111122 
COMPS,ioos:station:USF.COMPS:FHP:1,2012-06-09T04:00:00Z,28.1530,-82.8010,23.7,1111122 
COMPS,ioos:station:USF.COMPS:FHP:1,2012-06-09T05:00:00Z,28.1530,-82.8010,23.2,1111122 
COMPS,ioos:station:USF.COMPS:FHP:1,2012-06-09T06:00:00Z,28.1530,-82.8010,23.6,1111122 
COMPS,ioos:station:USF.COMPS:FHP:1,2012-06-09T07:00:00Z,28.1530,-82.8010,23.5,1111122 
COMPS,ioos:station:USF.COMPS:FHP:1,2012-06-09T08:00:00Z,28.1530,-82.8010,23.3,1111122 
COMPS,ioos:station:USF.COMPS:FHP:1,2012-06-09T09:00:00Z,28.1530,-82.8010,22.7,1111122 
COMPS,ioos:station:USF.COMPS:FHP:1,2012-06-09T10:00:00Z,28.1530,-82.8010,22.4,1111122 
COMPS,ioos:station:USF.COMPS:FHP:1,2012-06-09T11:00:00Z,28.1530,-82.8010,22.1,1111122 
COMPS,ioos:station:USF.COMPS:FHP:1,2012-06-09T12:00:00Z,28.1530,-82.8010,22.5,1111122 
COMPS,ioos:station:USF.COMPS:FHP:1,2012-06-09T13:00:00Z,28.1530,-82.8010,23.7,1111122 
COMPS,ioos:station:USF.COMPS:FHP:1,2012-06-09T14:00:00Z,28.1530,-82.8010,24.4,1111122 
COMPS,ioos:station:USF.COMPS:FHP:1,2012-06-09T15:00:00Z,28.1530,-82.8010,25.8,1111122 
COMPS,ioos:station:USF.COMPS:FHP:1,2012-06-09T16:00:00Z,28.1530,-82.8010,26.6,1111122 
COMPS,ioos:station:USF.COMPS:FHP:1,2012-06-09T17:00:00Z,28.1530,-82.8010,27.0,1111122 
COMPS,ioos:station:USF.COMPS:FHP:1,2012-06-09T18:00:00Z,28.1530,-82.8010,27.8,1111122 
COMPS,ioos:station:USF.COMPS:FHP:1,2012-06-09T19:00:00Z,28.1530,-82.8010,27.9,1111122 
COMPS,ioos:station:USF.COMPS:FHP:1,2012-06-09T20:00:00Z,28.1530,-82.8010,28.0,1111122 
COMPS,ioos:station:USF.COMPS:FHP:1,2012-06-09T21:00:00Z,28.1530,-82.8010,27.8,1111122 
COMPS,ioos:station:USF.COMPS:FHP:1,2012-06-09T22:00:00Z,28.1530,-82.8010,28.0,1111122 
COMPS,ioos:station:USF.COMPS:FHP:1,2012-06-10T00:00:00Z,28.1530,-82.8010,27.8,1111122 
COMPS,ioos:station:USF.COMPS:FHP:1,2012-06-10T01:00:00Z,28.1530,-82.8010,27.7,1111122 
COMPS,ioos:station:USF.COMPS:FHP:1,2012-06-10T02:00:00Z,28.1530,-82.8010,27.6,1111122 
COMPS,ioos:station:USF.COMPS:FHP:1,2012-06-10T03:00:00Z,28.1530,-82.8010,26.5,1111122 
COMPS,ioos:station:USF.COMPS:FHP:1,2012-06-10T04:00:00Z,28.1530,-82.8010,25.9,1111122 
COMPS,ioos:station:USF.COMPS:FHP:1,2012-06-10T05:00:00Z,28.1530,-82.8010,25.5,1111122 
COMPS,ioos:station:USF.COMPS:FHP:1,2012-06-10T06:00:00Z,28.1530,-82.8010,25.5,1111122 
COMPS,ioos:station:USF.COMPS:FHP:1,2012-06-10T07:00:00Z,28.1530,-82.8010,25.4,1111122 
COMPS,ioos:station:USF.COMPS:FHP:1,2012-06-10T08:00:00Z,28.1530,-82.8010,25.3,1111122 
COMPS,ioos:station:USF.COMPS:FHP:1,2012-06-10T09:00:00Z,28.1530,-82.8010,25.1,1111122 
COMPS,ioos:station:USF.COMPS:FHP:1,2012-06-10T10:00:00Z,28.1530,-82.8010,25.2,1111122 
COMPS,ioos:station:USF.COMPS:FHP:1,2012-06-10T11:00:00Z,28.1530,-82.8010,24.9,1111122 
COMPS,ioos:station:USF.COMPS:FHP:1,2012-06-10T12:00:00Z,28.1530,-82.8010,25.3,1111122 
COMPS,ioos:station:USF.COMPS:FHP:1,2012-06-10T13:00:00Z,28.1530,-82.8010,26.7,1111122 
COMPS,ioos:station:USF.COMPS:FHP:1,2012-06-10T14:00:00Z,28.1530,-82.8010,27.5,1111122 
COMPS,ioos:station:USF.COMPS:FHP:1,2012-06-10T15:00:00Z,28.1530,-82.8010,28.6,1111122 
COMPS,ioos:station:USF.COMPS:FHP:1,2012-06-10T16:00:00Z,28.1530,-82.8010,29.4,1111122 
COMPS,ioos:station:USF.COMPS:FHP:1,2012-06-10T17:00:00Z,28.1530,-82.8010,30.1,1111122 
COMPS,ioos:station:USF.COMPS:FHP:1,2012-06-10T18:00:00Z,28.1530,-82.8010,29.1,1111122 
COMPS,ioos:station:USF.COMPS:FHP:1,2012-06-10T19:00:00Z,28.1530,-82.8010,29.2,1111122 
COMPS,ioos:station:USF.COMPS:FHP:1,2012-06-10T20:00:00Z,28.1530,-82.8010,29.0,1111122 
COMPS,ioos:station:USF.COMPS:FHP:1,2012-06-10T21:00:00Z,28.1530,-82.8010,28.8,1111122 
COMPS,ioos:station:USF.COMPS:FHP:1,2012-06-10T22:00:00Z,28.1530,-82.8010,28.7,1111122 
COMPS,ioos:station:USF.COMPS:FHP:1,2012-06-10T23:00:00Z,28.1530,-82.8010,28.7,1111122 
COMPS,ioos:station:USF.COMPS:FHP:1,2012-06-11T00:00:00Z,28.1530,-82.8010,28.6,1111122 
COMPS,ioos:station:USF.COMPS:FHP:1,2012-06-11T01:00:00Z,28.1530,-82.8010,28.4,1111122 
COMPS,ioos:station:USF.COMPS:FHP:1,2012-06-11T02:00:00Z,28.1530,-82.8010,28.8,1111122 
COMPS,ioos:station:USF.COMPS:FHP:1,2012-06-11T03:00:00Z,28.1530,-82.8010,27.8,1111122 
COMPS,ioos:station:USF.COMPS:FHP:1,2012-06-11T04:00:00Z,28.1530,-82.8010,26.0,1111122 
COMPS,ioos:station:USF.COMPS:FHP:1,2012-06-11T05:00:00Z,28.1530,-82.8010,25.6,1111122 
COMPS,ioos:station:USF.COMPS:FHP:1,2012-06-11T06:00:00Z,28.1530,-82.8010,25.2,1111122 
COMPS,ioos:station:USF.COMPS:FHP:1,2012-06-11T07:00:00Z,28.1530,-82.8010,25.3,1111122 
COMPS,ioos:station:USF.COMPS:FHP:1,2012-06-11T08:00:00Z,28.1530,-82.8010,25.6,1111122 
COMPS,ioos:station:USF.COMPS:FHP:1,2012-06-11T09:00:00Z,28.1530,-82.8010,25.9,1111122 
COMPS,ioos:station:USF.COMPS:FHP:1,2012-06-11T10:00:00Z,28.1530,-82.8010,25.7,1111122 
COMPS,ioos:station:USF.COMPS:FHP:1,2012-06-11T11:00:00Z,28.1530,-82.8010,24.8,1111122 
COMPS,ioos:station:USF.COMPS:FHP:1,2012-06-11T12:00:00Z,28.1530,-82.8010,25.2,1111122 
COMPS,ioos:station:USF.COMPS:FHP:1,2012-06-11T13:00:00Z,28.1530,-82.8010,26.3,1111122 
COMPS,ioos:station:USF.COMPS:FHP:1,2012-06-11T14:00:00Z,28.1530,-82.8010,27.9,1111122 
COMPS,ioos:station:USF.COMPS:FHP:1,2012-06-11T15:00:00Z,28.1530,-82.8010,29.3,1111122 
COMPS,ioos:station:USF.COMPS:FHP:1,2012-06-11T16:00:00Z,28.1530,-82.8010,30.1,1111122 
COMPS,ioos:station:USF.COMPS:FHP:1,2012-06-11T17:00:00Z,28.1530,-82.8010,29.7,1111122 
COMPS,ioos:station:USF.COMPS:FHP:1,2012-06-11T18:00:00Z,28.1530,-82.8010,29.5,1111122 
COMPS,ioos:station:USF.COMPS:FHP:1,2012-06-11T19:00:00Z,28.1530,-82.8010,29.8,1111122 
COMPS,ioos:station:USF.COMPS:FHP:1,2012-06-11T20:00:00Z,28.1530,-82.8010,30.4,1111122 
COMPS,ioos:station:USF.COMPS:FHP:1,2012-06-11T21:00:00Z,28.1530,-82.8010,30.8,1111122 
COMPS,ioos:station:USF.COMPS:FHP:1,2012-06-11T22:00:00Z,28.1530,-82.8010,30.4,1111122 
COMPS,ioos:station:USF.COMPS:FHP:1,2012-06-12T00:00:00Z,28.1530,-82.8010,29.2,1111122 
COMPS,ioos:station:USF.COMPS:FHP:1,2012-06-12T01:00:00Z,28.1530,-82.8010,28.6,1111122 
COMPS,ioos:station:USF.COMPS:FHP:1,2012-06-12T02:00:00Z,28.1530,-82.8010,28.4,1111122 
COMPS,ioos:station:USF.COMPS:FHP:1,2012-06-12T03:00:00Z,28.1530,-82.8010,28.0,1111122 
COMPS,ioos:station:USF.COMPS:FHP:1,2012-06-12T04:00:00Z,28.1530,-82.8010,27.9,1111122 
COMPS,ioos:station:USF.COMPS:FHP:1,2012-06-12T05:00:00Z,28.1530,-82.8010,27.5,1111122 
COMPS,ioos:station:USF.COMPS:FHP:1,2012-06-12T06:00:00Z,28.1530,-82.8010,26.7,1111122 
COMPS,ioos:station:USF.COMPS:FHP:1,2012-06-12T07:00:00Z,28.1530,-82.8010,26.3,1111122 
COMPS,ioos:station:USF.COMPS:FHP:1,2012-06-12T08:00:00Z,28.1530,-82.8010,26.2,1111122 
COMPS,ioos:station:USF.COMPS:FHP:1,2012-06-12T09:00:00Z,28.1530,-82.8010,25.6,1111122 
COMPS,ioos:station:USF.COMPS:FHP:1,2012-06-12T10:00:00Z,28.1530,-82.8010,25.5,1111122 
COMPS,ioos:station:USF.COMPS:FHP:1,2012-06-12T11:00:00Z,28.1530,-82.8010,25.5,1111122 
COMPS,ioos:station:USF.COMPS:FHP:1,2012-06-12T12:00:00Z,28.1530,-82.8010,26.0,1111122 
COMPS,ioos:station:USF.COMPS:FHP:1,2012-06-12T13:00:00Z,28.1530,-82.8010,26.6,1111122 
COMPS,ioos:station:USF.COMPS:FHP:1,2012-06-12T14:00:00Z,28.1530,-82.8010,27.2,1111122 
COMPS,ioos:station:USF.COMPS:FHP:1,2012-06-12T15:00:00Z,28.1530,-82.8010,27.5,1111122 
COMPS,ioos:station:USF.COMPS:FHP:1,2012-06-12T16:00:00Z,28.1530,-82.8010,28.0,1111122 
COMPS,ioos:station:USF.COMPS:FHP:1,2012-06-12T17:00:00Z,28.1530,-82.8010,28.0,1111122 
COMPS,ioos:station:USF.COMPS:FHP:1,2012-06-12T18:00:00Z,28.1530,-82.8010,28.0,1111122 
COMPS,ioos:station:USF.COMPS:FHP:1,2012-06-12T19:00:00Z,28.1530,-82.8010,28.5,1111122 
COMPS,ioos:station:USF.COMPS:FHP:1,2012-06-12T20:00:00Z,28.1530,-82.8010,28.9,1111122 
COMPS,ioos:station:USF.COMPS:FHP:1,2012-06-12T21:00:00Z,28.1530,-82.8010,28.8,1111122 
COMPS,ioos:station:USF.COMPS:FHP:1,2012-06-12T22:00:00Z,28.1530,-82.8010,29.1,1111122 
COMPS,ioos:station:USF.COMPS:FHP:1,2012-06-13T00:00:00Z,28.1530,-82.8010,28.4,1111122 
COMPS,ioos:station:USF.COMPS:FHP:1,2012-06-13T01:00:00Z,28.1530,-82.8010,28.1,1111122 
COMPS,ioos:station:USF.COMPS:FHP:1,2012-06-13T02:00:00Z,28.1530,-82.8010,27.9,1111122 
COMPS,ioos:station:USF.COMPS:FHP:1,2012-06-13T03:00:00Z,28.1530,-82.8010,27.8,1111122 
COMPS,ioos:station:USF.COMPS:FHP:1,2012-06-13T04:00:00Z,28.1530,-82.8010,27.8,1111122 
COMPS,ioos:station:USF.COMPS:FHP:1,2012-06-13T05:00:00Z,28.1530,-82.8010,27.7,1111122 
COMPS,ioos:station:USF.COMPS:FHP:1,2012-06-13T06:00:00Z,28.1530,-82.8010,27.7,1111122 
COMPS,ioos:station:USF.COMPS:FHP:1,2012-06-13T07:00:00Z,28.1530,-82.8010,27.7,1111122 
COMPS,ioos:station:USF.COMPS:FHP:1,2012-06-13T08:00:00Z,28.1530,-82.8010,27.7,1111122 
COMPS,ioos:station:USF.COMPS:FHP:1,2012-06-13T09:00:00Z,28.1530,-82.8010,27.7,1111122 
COMPS,ioos:station:USF.COMPS:FHP:1,2012-06-13T10:00:00Z,28.1530,-82.8010,27.7,1111122 
COMPS,ioos:station:USF.COMPS:FHP:1,2012-06-13T11:00:00Z,28.1530,-82.8010,27.1,1111122 
COMPS,ioos:station:USF.COMPS:FHP:1,2012-06-13T12:00:00Z,28.1530,-82.8010,27.6,1111122 
COMPS,ioos:station:USF.COMPS:FHP:1,2012-06-13T13:00:00Z,28.1530,-82.8010,27.9,1111122 
COMPS,ioos:station:USF.COMPS:FHP:1,2012-06-13T14:00:00Z,28.1530,-82.8010,28.0,1111122 
COMPS,ioos:station:USF.COMPS:FHP:1,2012-06-13T15:00:00Z,28.1530,-82.8010,28.6,1111122 
COMPS,ioos:station:USF.COMPS:FHP:1,2012-06-13T16:00:00Z,28.1530,-82.8010,28.7,1111122 
COMPS,ioos:station:USF.COMPS:FHP:1,2012-06-13T17:00:00Z,28.1530,-82.8010,29.0,1111122 
COMPS,ioos:station:USF.COMPS:FHP:1,2012-06-13T20:00:00Z,28.1530,-82.8010,29.0,1111122 
COMPS,ioos:station:USF.COMPS:FHP:1,2012-06-14T00:00:00Z,28.1530,-82.8010,28.5,1111122 
COMPS,ioos:station:USF.COMPS:FHP:1,2012-06-14T09:00:00Z,28.1530,-82.8010,27.5,1111122 
COMPS,ioos:station:USF.COMPS:FHP:1,2012-06-18T18:00:00Z,28.1530,-82.8010,29.6,1111122 
COMPS,ioos:station:USF.COMPS:FHP:1,2012-06-18T19:00:00Z,28.1530,-82.8010,30.1,1111122 
COMPS,ioos:station:USF.COMPS:FHP:1,2012-06-18T20:00:00Z,28.1530,-82.8010,28.5,1111122 
COMPS,ioos:station:USF.COMPS:FHP:1,2012-06-18T21:00:00Z,28.1530,-82.8010,28.5,1111122 
COMPS,ioos:station:USF.COMPS:FHP:1,2012-06-18T22:00:00Z,28.1530,-82.8010,28.4,1111122 
COMPS,ioos:station:USF.COMPS:FHP:1,2012-06-18T23:00:00Z,28.1530,-82.8010,28.8,1111122 
COMPS,ioos:station:USF.COMPS:FHP:1,2012-06-19T00:00:00Z,28.1530,-82.8010,29.6,1111122 
COMPS,ioos:station:USF.COMPS:FHP:1,2012-06-19T01:00:00Z,28.1530,-82.8010,29.2,1111122 
COMPS,ioos:station:USF.COMPS:FHP:1,2012-06-19T02:00:00Z,28.1530,-82.8010,28.0,1111122 
COMPS,ioos:station:USF.COMPS:FHP:1,2012-06-19T03:00:00Z,28.1530,-82.8010,27.3,1111122 
COMPS,ioos:station:USF.COMPS:FHP:1,2012-06-19T04:00:00Z,28.1530,-82.8010,26.1,1111122 
COMPS,ioos:station:USF.COMPS:FHP:1,2012-06-19T05:00:00Z,28.1530,-82.8010,25.5,1111122 
COMPS,ioos:station:USF.COMPS:FHP:1,2012-06-19T06:00:00Z,28.1530,-82.8010,24.7,1111122 
COMPS,ioos:station:USF.COMPS:FHP:1,2012-06-19T07:00:00Z,28.1530,-82.8010,24.1,1111122 
COMPS,ioos:station:USF.COMPS:FHP:1,2012-06-19T08:00:00Z,28.1530,-82.8010,23.4,1111122 
COMPS,ioos:station:USF.COMPS:FHP:1,2012-06-19T09:00:00Z,28.1530,-82.8010,22.9,1111122 
COMPS,ioos:station:USF.COMPS:FHP:1,2012-06-19T10:00:00Z,28.1530,-82.8010,22.6,1111122 
COMPS,ioos:station:USF.COMPS:FHP:1,2012-06-19T11:00:00Z,28.1530,-82.8010,22.7,1111122 
COMPS,ioos:station:USF.COMPS:FHP:1,2012-06-19T12:00:00Z,28.1530,-82.8010,22.7,1111122 
COMPS,ioos:station:USF.COMPS:FHP:1,2012-06-19T13:00:00Z,28.1530,-82.8010,23.6,1111122 
COMPS,ioos:station:USF.COMPS:FHP:1,2012-06-19T14:00:00Z,28.1530,-82.8010,25.4,1111122 
COMPS,ioos:station:USF.COMPS:FHP:1,2012-06-19T15:00:00Z,28.1530,-82.8010,26.7,1111122 
COMPS,ioos:station:USF.COMPS:FHP:1,2012-06-19T16:00:00Z,28.1530,-82.8010,27.6,1111122 
COMPS,ioos:station:USF.COMPS:FHP:1,2012-06-19T17:00:00Z,28.1530,-82.8010,28.4,1111122 
COMPS,ioos:station:USF.COMPS:FHP:1,2012-06-19T18:00:00Z,28.1530,-82.8010,29.3,1111122 
COMPS,ioos:station:USF.COMPS:FHP:1,2012-06-19T19:00:00Z,28.1530,-82.8010,29.7,1111122 
COMPS,ioos:station:USF.COMPS:FHP:1,2012-06-19T20:00:00Z,28.1530,-82.8010,30.0,1111122 
COMPS,ioos:station:USF.COMPS:FHP:1,2012-06-19T21:00:00Z,28.1530,-82.8010,29.9,1111122 
COMPS,ioos:station:USF.COMPS:FHP:1,2012-06-19T22:00:00Z,28.1530,-82.8010,29.9,1111122 
COMPS,ioos:station:USF.COMPS:FHP:1,2012-06-19T23:00:00Z,28.1530,-82.8010,29.3,1111122 
COMPS,ioos:station:USF.COMPS:FHP:1,2012-06-20T00:00:00Z,28.1530,-82.8010,28.8,1111122 
COMPS,ioos:station:USF.COMPS:FHP:1,2012-06-20T01:00:00Z,28.1530,-82.8010,27.7,1111122 
COMPS,ioos:station:USF.COMPS:FHP:1,2012-06-20T02:00:00Z,28.1530,-82.8010,26.7,1111122 
COMPS,ioos:station:USF.COMPS:FHP:1,2012-06-20T03:00:00Z,28.1530,-82.8010,26.0,1111122 
COMPS,ioos:station:USF.COMPS:FHP:1,2012-06-20T04:00:00Z,28.1530,-82.8010,25.4,1111122 
COMPS,ioos:station:USF.COMPS:FHP:1,2012-06-20T05:00:00Z,28.1530,-82.8010,24.7,1111122 
COMPS,ioos:station:USF.COMPS:FHP:1,2012-06-20T06:00:00Z,28.1530,-82.8010,24.1,1111122 
COMPS,ioos:station:USF.COMPS:FHP:1,2012-06-20T07:00:00Z,28.1530,-82.8010,23.5,1111122 
COMPS,ioos:station:USF.COMPS:FHP:1,2012-06-20T08:00:00Z,28.1530,-82.8010,23.0,1111122 
COMPS,ioos:station:USF.COMPS:FHP:1,2012-06-20T09:00:00Z,28.1530,-82.8010,23.0,1111122 
COMPS,ioos:station:USF.COMPS:FHP:1,2012-06-20T10:00:00Z,28.1530,-82.8010,23.4,1111122 
COMPS,ioos:station:USF.COMPS:FHP:1,2012-06-20T11:00:00Z,28.1530,-82.8010,23.2,1111122 
COMPS,ioos:station:USF.COMPS:FHP:1,2012-06-20T12:00:00Z,28.1530,-82.8010,23.6,1111122 
COMPS,ioos:station:USF.COMPS:FHP:1,2012-06-20T13:00:00Z,28.1530,-82.8010,24.5,1111122 
COMPS,ioos:station:USF.COMPS:FHP:1,2012-06-20T14:00:00Z,28.1530,-82.8010,26.0,1111122 
COMPS,ioos:station:USF.COMPS:FHP:1,2012-06-20T15:00:00Z,28.1530,-82.8010,27.8,1111122 
COMPS,ioos:station:USF.COMPS:FHP:1,2012-06-20T16:00:00Z,28.1530,-82.8010,27.9,1111122 
COMPS,ioos:station:USF.COMPS:FHP:1,2012-06-20T17:00:00Z,28.1530,-82.8010,28.1,1111122 
COMPS,ioos:station:USF.COMPS:FHP:1,2012-06-20T18:00:00Z,28.1530,-82.8010,28.9,1111122 
COMPS,ioos:station:USF.COMPS:FHP:1,2012-06-20T19:00:00Z,28.1530,-82.8010,29.5,1111122 
COMPS,ioos:station:USF.COMPS:FHP:1,2012-06-20T20:00:00Z,28.1530,-82.8010,26.7,1111122 
COMPS,ioos:station:USF.COMPS:FHP:1,2012-06-20T22:00:00Z,28.1530,-82.8010,25.2,1111122 
COMPS,ioos:station:USF.COMPS:FHP:1,2012-06-20T23:00:00Z,28.1530,-82.8010,25.0,1111122 
COMPS,ioos:station:USF.COMPS:FHP:1,2012-06-21T00:00:00Z,28.1530,-82.8010,24.9,1111122 
COMPS,ioos:station:USF.COMPS:FHP:1,2012-06-21T01:00:00Z,28.1530,-82.8010,24.6,1111122 
COMPS,ioos:station:USF.COMPS:FHP:1,2012-06-21T02:00:00Z,28.1530,-82.8010,24.3,1111122 
COMPS,ioos:station:USF.COMPS:FHP:1,2012-06-21T03:00:00Z,28.1530,-82.8010,24.3,1111122 
COMPS,ioos:station:USF.COMPS:FHP:1,2012-06-21T04:00:00Z,28.1530,-82.8010,24.2,1111122 
COMPS,ioos:station:USF.COMPS:FHP:1,2012-06-21T05:00:00Z,28.1530,-82.8010,24.3,1111122 
COMPS,ioos:station:USF.COMPS:FHP:1,2012-06-21T06:00:00Z,28.1530,-82.8010,24.1,1111122 
COMPS,ioos:station:USF.COMPS:FHP:1,2012-06-21T07:00:00Z,28.1530,-82.8010,24.3,1111122 
COMPS,ioos:station:USF.COMPS:FHP:1,2012-06-21T08:00:00Z,28.1530,-82.8010,24.2,1111122 
COMPS,ioos:station:USF.COMPS:FHP:1,2012-06-21T09:00:00Z,28.1530,-82.8010,24.0,1111122 
COMPS,ioos:station:USF.COMPS:FHP:1,2012-06-21T10:00:00Z,28.1530,-82.8010,24.2,1111122 
COMPS,ioos:station:USF.COMPS:FHP:1,2012-06-21T11:00:00Z,28.1530,-82.8010,24.2,1111122 
COMPS,ioos:station:USF.COMPS:FHP:1,2012-06-21T12:00:00Z,28.1530,-82.8010,24.6,1111122 
COMPS,ioos:station:USF.COMPS:FHP:1,2012-06-21T13:00:00Z,28.1530,-82.8010,25.0,1111122 
COMPS,ioos:station:USF.COMPS:FHP:1,2012-06-21T14:00:00Z,28.1530,-82.8010,26.1,1111122 
COMPS,ioos:station:USF.COMPS:FHP:1,2012-06-21T15:00:00Z,28.1530,-82.8010,27.1,1111122 
COMPS,ioos:station:USF.COMPS:FHP:1,2012-06-21T19:00:00Z,28.1530,-82.8010,29.6,1111122 
COMPS,ioos:station:USF.COMPS:FHP:1,2012-06-21T20:00:00Z,28.1530,-82.8010,30.3,1111122 
COMPS,ioos:station:USF.COMPS:FHP:1,2012-06-21T21:00:00Z,28.1530,-82.8010,30.1,1111122 
COMPS,ioos:station:USF.COMPS:FHP:1,2012-06-21T22:00:00Z,28.1530,-82.8010,24.8,1111122 
COMPS,ioos:station:USF.COMPS:FHP:1,2012-06-21T23:00:00Z,28.1530,-82.8010,24.0,1111122 
COMPS,ioos:station:USF.COMPS:FHP:1,2012-06-22T00:00:00Z,28.1530,-82.8010,24.6,1111122 
COMPS,ioos:station:USF.COMPS:FHP:1,2012-06-22T01:00:00Z,28.1530,-82.8010,24.9,1111122 
COMPS,ioos:station:USF.COMPS:FHP:1,2012-06-22T02:00:00Z,28.1530,-82.8010,25.1,1111122 
COMPS,ioos:station:USF.COMPS:FHP:1,2012-06-22T03:00:00Z,28.1530,-82.8010,24.9,1111122 
COMPS,ioos:station:USF.COMPS:FHP:1,2012-06-22T04:00:00Z,28.1530,-82.8010,24.9,1111122 
COMPS,ioos:station:USF.COMPS:FHP:1,2012-06-22T05:00:00Z,28.1530,-82.8010,24.9,1111122 
COMPS,ioos:station:USF.COMPS:FHP:1,2012-06-22T06:00:00Z,28.1530,-82.8010,24.8,1111122 
COMPS,ioos:station:USF.COMPS:FHP:1,2012-06-22T07:00:00Z,28.1530,-82.8010,24.7,1111122 
COMPS,ioos:station:USF.COMPS:FHP:1,2012-06-22T08:00:00Z,28.1530,-82.8010,24.8,1111122 
COMPS,ioos:station:USF.COMPS:FHP:1,2012-06-22T09:00:00Z,28.1530,-82.8010,24.6,1111122 
COMPS,ioos:station:USF.COMPS:FHP:1,2012-06-22T10:00:00Z,28.1530,-82.8010,24.6,1111122 
COMPS,ioos:station:USF.COMPS:FHP:1,2012-06-22T11:00:00Z,28.1530,-82.8010,24.4,1111122 
COMPS,ioos:station:USF.COMPS:FHP:1,2012-06-22T12:00:00Z,28.1530,-82.8010,24.5,1111122 
COMPS,ioos:station:USF.COMPS:FHP:1,2012-06-22T13:00:00Z,28.1530,-82.8010,25.2,1111122 
COMPS,ioos:station:USF.COMPS:FHP:1,2012-06-22T14:00:00Z,28.1530,-82.8010,26.0,1111122 
COMPS,ioos:station:USF.COMPS:FHP:1,2012-06-22T15:00:00Z,28.1530,-82.8010,26.7,1111122 
COMPS,ioos:station:USF.COMPS:FHP:1,2012-06-22T16:00:00Z,28.1530,-82.8010,28.6,1111122 
COMPS,ioos:station:USF.COMPS:FHP:1,2012-06-22T17:00:00Z,28.1530,-82.8010,29.2,1111122 
COMPS,ioos:station:USF.COMPS:FHP:1,2012-06-22T18:00:00Z,28.1530,-82.8010,29.3,1111122 
COMPS,ioos:station:USF.COMPS:FHP:1,2012-06-22T19:00:00Z,28.1530,-82.8010,28.5,1111122 
COMPS,ioos:station:USF.COMPS:FHP:1,2012-06-23T12:00:00Z,28.1530,-82.8010,24.2,1111122 
COMPS,ioos:station:USF.COMPS:FHP:1,2012-06-23T13:00:00Z,28.1530,-82.8010,24.2,1111122 
COMPS,ioos:station:USF.COMPS:FHP:1,2012-06-23T14:00:00Z,28.1530,-82.8010,24.9,1111122 
COMPS,ioos:station:USF.COMPS:FHP:1,2012-06-23T15:00:00Z,28.1530,-82.8010,25.7,1111122 